TimeEDT,TemperatureF,Dew PointF,Humidity,Sea Level PressureIn,VisibilityMPH,Wind Direction,Wind SpeedMPH,Gust SpeedMPH,PrecipitationIn,Events,Conditions,WindDirDegrees,DateUTC
12:45 AM,64.4,64.4,100,29.73,2.0,East,10.4,-,0.37,Rain,Heavy Rain,100,2012-10-02 04:45:00
12:49 AM,64.4,64.4,100,29.73,1.8,East,8.1,-,0.47,Rain,Heavy Rain,100,2012-10-02 04:49:00
12:53 AM,64.0,64.0,100,29.70,1.8,East,9.2,-,0.53,Rain,Heavy Rain,100,2012-10-02 04:53:00
12:55 AM,64.4,64.4,100,29.74,2.0,ESE,5.8,-,0.05,Rain-Thunderstorm,Heavy Rain,110,2012-10-02 04:55:00
1:01 AM,64.4,64.4,100,29.73,2.5,East,5.8,-,0.12,Rain-Thunderstorm,Heavy Rain,90,2012-10-02 05:01:00
1:08 AM,64.4,64.4,100,29.73,2.0,ENE,3.5,-,0.23,Rain-Thunderstorm,Heavy Rain,70,2012-10-02 05:08:00
1:12 AM,64.4,64.4,100,29.73,1.8,NNE,5.8,-,0.31,Rain-Thunderstorm,Heavy Rain,30,2012-10-02 05:12:00
1:15 AM,64.4,64.4,100,29.73,1.2,NNE,6.9,-,0.41,Rain,Heavy Rain,20,2012-10-02 05:15:00
1:23 AM,64.4,64.4,100,29.75,1.8,West,5.8,-,0.48,Rain,Heavy Rain,270,2012-10-02 05:23:00
1:28 AM,64.4,64.4,100,29.74,2.5,North,4.6,-,0.52,Rain,Heavy Rain,360,2012-10-02 05:28:00
1:37 AM,64.4,64.4,100,29.74,3.0,North,4.6,-,0.57,Rain,Heavy Rain,10,2012-10-02 05:37:00
1:53 AM,64.0,64.0,100,29.70,6.0,ENE,5.8,-,0.58,Rain,Light Rain,60,2012-10-02 05:53:00
2:08 AM,64.4,64.4,100,29.73,8.0,Calm,Calm,-,0.01,Rain,Light Rain,0,2012-10-02 06:08:00
2:17 AM,64.4,64.4,100,29.73,5.0,ENE,4.6,-,0.01,Rain,Light Rain,70,2012-10-02 06:17:00
2:53 AM,64.9,64.0,97,29.70,5.0,Calm,Calm,-,0.02,Rain,Light Rain,0,2012-10-02 06:53:00
3:53 AM,66.0,64.9,96,29.70,10.0,Calm,Calm,-,0.00,,Overcast,0,2012-10-02 07:53:00
4:34 AM,66.2,66.2,100,29.75,8.0,SSE,3.5,-,0.00,Rain,Light Rain,150,2012-10-02 08:34:00
4:49 AM,66.2,66.2,100,29.74,9.0,SE,3.5,-,0.00,Rain,Light Rain,140,2012-10-02 08:49:00
4:53 AM,66.9,66.0,97,29.71,10.0,Calm,Calm,-,0.00,,Overcast,0,2012-10-02 08:53:00
5:23 AM,66.2,66.2,100,29.75,2.0,SE,3.5,-,0.01,,Overcast,130,2012-10-02 09:23:00
5:25 AM,66.2,66.2,100,29.75,1.5,SE,3.5,-,0.01,,Overcast,130,2012-10-02 09:25:00
5:30 AM,66.2,66.2,100,29.75,0.8,SE,3.5,-,0.01,,Overcast,130,2012-10-02 09:30:00
5:38 AM,66.2,66.2,100,29.75,0.8,ESE,3.5,-,0.01,,Overcast,120,2012-10-02 09:38:00
5:48 AM,66.2,66.2,100,29.76,1.2,Calm,Calm,-,0.01,,Overcast,0,2012-10-02 09:48:00
5:51 AM,66.2,66.2,100,29.76,2.0,Calm,Calm,-,0.01,,Overcast,0,2012-10-02 09:51:00
5:53 AM,66.9,66.0,97,29.73,3.0,SE,3.5,-,0.01,,Overcast,140,2012-10-02 09:53:00
6:53 AM,66.9,66.0,97,29.74,10.0,South,3.5,-,N/A,,Scattered Clouds,180,2012-10-02 10:53:00
7:53 AM,66.0,64.0,93,29.77,10.0,South,5.8,-,N/A,,Clear,190,2012-10-02 11:53:00
9:53 AM,68.0,62.1,81,29.81,10.0,SSW,5.8,-,N/A,,Mostly Cloudy,200,2012-10-02 13:53:00
10:53 AM,66.9,60.1,79,29.83,10.0,SW,4.6,-,N/A,,Overcast,220,2012-10-02 14:53:00
11:09 AM,68.0,60.8,78,29.87,10.0,SW,6.9,-,N/A,,Overcast,220,2012-10-02 15:09:00
11:26 AM,69.8,60.8,73,29.87,10.0,WSW,8.1,-,N/A,,Overcast,250,2012-10-02 15:26:00
11:53 AM,68.0,60.1,76,29.84,10.0,SSW,6.9,-,N/A,,Overcast,210,2012-10-02 15:53:00
12:02 PM,69.8,60.8,73,29.87,10.0,SSW,6.9,-,N/A,,Overcast,210,2012-10-02 16:02:00
12:10 PM,69.8,60.8,73,29.87,10.0,SW,9.2,-,N/A,,Overcast,220,2012-10-02 16:10:00
12:53 PM,69.1,59.0,70,29.84,10.0,SW,6.9,-,N/A,,Overcast,220,2012-10-02 16:53:00
1:15 PM,69.8,60.8,73,29.88,10.0,WSW,10.4,16.1,N/A,,Overcast,240,2012-10-02 17:15:00
1:28 PM,69.8,60.8,73,29.88,10.0,West,8.1,-,N/A,,Overcast,260,2012-10-02 17:28:00
1:44 PM,69.8,60.8,73,29.88,10.0,WSW,5.8,-,N/A,,Overcast,240,2012-10-02 17:44:00
1:53 PM,70.0,60.1,71,29.85,10.0,SW,8.1,-,N/A,,Overcast,230,2012-10-02 17:53:00
2:26 PM,69.8,60.8,73,29.88,10.0,SW,5.8,-,N/A,,Overcast,220,2012-10-02 18:26:00
2:41 PM,69.8,60.8,73,29.88,10.0,SW,6.9,-,N/A,,Overcast,230,2012-10-02 18:41:00
2:53 PM,70.0,59.0,68,29.84,10.0,South,6.9,-,N/A,,Overcast,190,2012-10-02 18:53:00
3:50 PM,69.8,60.8,73,29.88,10.0,West,8.1,-,N/A,,Overcast,270,2012-10-02 19:50:00
3:53 PM,70.0,60.1,71,29.85,10.0,West,6.9,-,N/A,,Overcast,260,2012-10-02 19:53:00
4:02 PM,69.8,60.8,73,29.89,10.0,WSW,8.1,-,N/A,,Overcast,240,2012-10-02 20:02:00
4:53 PM,71.1,60.1,68,29.87,10.0,SSW,4.6,-,N/A,,Overcast,210,2012-10-02 20:53:00
5:53 PM,69.1,60.1,73,29.88,10.0,SW,3.5,-,N/A,,Overcast,220,2012-10-02 21:53:00
6:53 PM,66.9,60.1,79,29.91,10.0,SW,3.5,-,N/A,,Overcast,220,2012-10-02 22:53:00
7:53 PM,66.9,60.1,79,29.92,10.0,Calm,Calm,-,N/A,,Overcast,0,2012-10-02 23:53:00
8:53 PM,66.9,60.1,79,29.95,10.0,SSW,3.5,-,N/A,,Overcast,210,2012-10-03 00:53:00
10:53 PM,64.9,60.1,84,29.98,10.0,Calm,Calm,-,N/A,,Scattered Clouds,0,2012-10-03 02:53:00
11:53 PM,63.0,60.1,90,29.99,10.0,Calm,Calm,-,N/A,,Clear,0,2012-10-03 03:53:00